Trenton, NJ

9:34 AM EDT on August 16, 2017 (GMT -0400)
Trenton Mercer

Weather History for KTTN - October, 2013

Change the Weather History Date:

Wednesday, October 9, 2013

  Actual Average Record
Temperature  
Mean Temperature 57 °F 57 °F  
Max Temperature 62 °F 67 °F 86 °F (1939)
Min Temperature 51 °F 46 °F 28 °F (1988)
Degree Days  
Heating Degree Days 8 9  
Month to date heating degree days 15 66  
Since 1 July heating degree days 103 131  
Cooling Degree Days 0 0  
Month to date cooling degree days 35 7  
Year to date cooling degree days 1076 962  
Growing Degree Days 6 (Base 50)    
Moisture  
Dew Point 45 °F    
Average Humidity 66    
Maximum Humidity 72    
Minimum Humidity 60    
Precipitation  
Precipitation 0.00 in 0.15 in 5.42 in (1903)
Month to date precipitation 0.71 1.37  
Year to date precipitation 34.67 36.62  
Sea Level Pressure  
Sea Level Pressure 30.30 in    
Wind  
Wind Speed 9 mph (NE)    
Max Wind Speed 18 mph    
Max Gust Speed 26 mph    
Visibility 10 miles    
Events      
T = Trace of Precipitation, MM = Missing Value Source: NWS Daily Summary

Daily Weather History Graph

Daily Weather History Graph

Search for Another Location

Airport or City:

Trip Planner

Search our weather history database for the weather conditions in past years. The results will help you decide how hot, cold, wet, or windy it might be!

Date:

Astronomy

Oct. 09, 2013 Rise Set
Actual Time 7:03 AM EDT 6:28 PM EDT
Civil Twilight 6:36 AM EDT 6:55 PM EDT
Nautical Twilight 6:05 AM EDT 7:26 PM EDT
Astronomical Twilight 5:33 AM EDT 7:58 PM EDT
Moon 11:57 AM EDT (10/9) 9:59 PM EDT (10/9)
Length of Visible Light 12h 18m
Length of Day
11h 24m
Waxing Crescent, 25% of the Moon is Illuminated
Oct 9
Waxing Crescent
Oct 11
First Quarter
Oct 18
Full
Oct 26
Last Quarter
Nov 3
New

Hourly Weather History & Observations

Time (EDT) Temp. Dew Point Humidity Pressure Visibility Wind Dir Wind Speed Gust Speed Precip Events Conditions
12:53 AM 55.0 °F 44.1 °F 67% 30.30 in 10.0 mi NNE 6.9 mph - N/A   Clear
1:53 AM 54.0 °F 43.0 °F 66% 30.30 in 10.0 mi NE 8.1 mph - N/A   Clear
2:53 AM 54.0 °F 42.1 °F 64% 30.30 in 10.0 mi NNE 8.1 mph - N/A   Clear
3:53 AM 53.1 °F 42.1 °F 66% 30.29 in 10.0 mi NNE 9.2 mph - N/A   Clear
4:53 AM 53.1 °F 42.1 °F 66% 30.29 in 10.0 mi NE 8.1 mph - N/A   Clear
5:53 AM 51.1 °F 42.1 °F 71% 30.30 in 10.0 mi NNE 6.9 mph - N/A   Clear
6:53 AM 52.0 °F 41.0 °F 66% 30.31 in 10.0 mi NNE 9.2 mph - N/A   Clear
7:53 AM 52.0 °F 39.0 °F 61% 30.34 in 10.0 mi NNE 10.4 mph - N/A   Clear
8:53 AM 53.1 °F 41.0 °F 64% 30.35 in 10.0 mi NNE 11.5 mph 17.3 mph N/A   Clear
9:53 AM 54.0 °F 44.1 °F 69% 30.34 in 10.0 mi NNE 10.4 mph - N/A   Clear
10:53 AM 57.0 °F 46.0 °F 67% 30.35 in 10.0 mi NE 11.5 mph - N/A   Scattered Clouds
11:53 AM 57.9 °F 46.9 °F 67% 30.34 in 10.0 mi NE 11.5 mph - N/A   Clear
12:53 PM 61.0 °F 46.0 °F 58% 30.33 in 10.0 mi East 12.7 mph 25.3 mph N/A   Scattered Clouds
1:53 PM 60.1 °F 46.0 °F 60% 30.32 in 10.0 mi East 16.1 mph 26.5 mph N/A   Overcast
2:53 PM 61.0 °F 46.9 °F 60% 30.32 in 10.0 mi ENE 15.0 mph 21.9 mph N/A   Overcast
3:53 PM 61.0 °F 46.9 °F 60% 30.31 in 10.0 mi ENE 13.8 mph - N/A   Scattered Clouds
4:53 PM 61.0 °F 46.9 °F 60% 30.30 in 10.0 mi East 10.4 mph - N/A   Clear
5:53 PM 59.0 °F 48.0 °F 67% 30.30 in 10.0 mi ENE 6.9 mph - N/A   Clear
6:53 PM 57.9 °F 48.9 °F 72% 30.29 in 10.0 mi ENE 4.6 mph - N/A   Overcast
7:19 PM 57.2 °F 48.2 °F 72% 30.30 in 10.0 mi NE 5.8 mph - N/A   Overcast
7:53 PM 57.9 °F 48.9 °F 72% 30.27 in 10.0 mi NNE 6.9 mph - N/A   Clear
8:53 PM 55.9 °F 46.9 °F 72% 30.27 in 10.0 mi NE 5.8 mph - N/A   Clear
9:53 PM 55.9 °F 46.0 °F 69% 30.27 in 10.0 mi NE 5.8 mph - N/A   Clear
10:53 PM 55.9 °F 46.9 °F 72% 30.26 in 10.0 mi NNE 5.8 mph - N/A   Clear
11:53 PM 55.9 °F 46.0 °F 69% 30.24 in 10.0 mi NNE 9.2 mph - N/A   Clear